Location: Frizzleburg
(41.0764°N, 80.4548°W)
Time: 09:11:29
(UTC+00:00)

COSMO-SKYMED 1 - Pass Details

Date: 17 November 2019
Orbit: 621 x 623 km, 97.9° (Epoch: 06 December)

Event Time Altitude Azimuth Distance (km) Brightness Sun altitude
Rises 10:02:32 0° 148° (SSE) 2,890 6.5 -24.2°
Reaches altitude 10° 10:04:48 10° 141° (SE) 1,988 5.7 -23.8°
Maximum altitude 10:08:51 40° 72° (ENE) 921 3.8 -23.1°
Drops below altitude 10° 10:12:55 10° 2° (N) 2,001 5.1 -22.3°
Enters shadow 10:15:01 - 356° (N) 2,836 5.8 -21.9°
